User: anonymous   Login
Location: Bosmont
(49.7318°N, 3.8587°E)
Time: 16:39:49
(UTC+00:00)
Language:

Sep Motor Cover - Orbit

View from above orbital plane
View from above orbital plane
View from above satellite
View from above satellite

Ground track
Ground track

The orbit data is extracted from the following two-line orbital elements,

1 23347U 94074F   24149.19893360  .00001297  00000-0  28579-3 0  9995
2 23347  97.8728 246.5972 0128794 347.0378  74.7968 14.54006712561193
Epoch (UTC): 28 May 2024 04:46:27
Eccentricity: 0.0128794
inclination: 97.8728°
perigee height: 621 km
apogee height: 804 km
right ascension of ascending node: 246.5972°
argument of perigee: 347.0378°
revolutions per day: 14.54006712
mean anomaly at epoch: 74.7968°
orbit number at epoch: 56119

The dashed part of the orbit path shows where the satellite is in the earth's shadow,  

DLR